DW7589 Weather Reports


time (UTC)temp
F
wind
direction
speed
knots
gust
knots
rain 1hr
in
rain 24hr
in
rain mn
in
humidity
%
barometer
mb
20260905154738 90 202 1.7 6.1 0.00 0.00 0.00 60 1014.6
20260905153737 89 160 1.7 4.3 0.00 0.00 0.00 61 1014.6
20260905153238 89 171 1.7 4.3 0.00 0.00 0.00 62 1014.5
20260905152737 89 211 1.7 5.2 0.00 0.00 0.00 62 1014.6
20260905152238 89 208 1.7 5.2 0.00 0.00 0.00 63 1014.7
20260905151737 88 211 1.7 7.0 0.00 0.00 0.00 64 1014.7
20260905151238 88 226 1.7 7.0 0.00 0.00 0.00 65 1014.7
20260905150737 88 228 1.7 6.1 0.00 0.00 0.00 66 1014.8
20260905150238 87 222 1.7 6.1 0.00 0.00 0.00 68 1014.7
20260905145737 87 171 0.9 5.2 0.00 0.00 0.00 70 1014.8
20260905145238 86 183 0.9 4.3 0.00 0.00 0.00 71 1014.7
20260905144737 86 203 0.9 4.3 0.00 0.00 0.00 71 1014.6
20260905144238 85 181 0.9 2.6 0.00 0.00 0.00 73 1014.6
20260905143737 85 176 0.9 2.6 0.00 0.00 0.00 74 1014.6
20260905143238 84 204 0.9 4.3 0.00 0.00 0.00 75 1014.6
20260905142737 84 192 1.7 4.3 0.00 0.00 0.00 76 1014.5
20260905142238 84 175 0.9 3.5 0.00 0.00 0.00 76 1014.5
20260905141737 83 182 0.9 1.7 0.00 0.00 0.00 77 1014.5
20260905141237 83 172 0.9 3.5 0.00 0.00 0.00 78 1014.5
20260905140738 82 162 0.9 3.5 0.00 0.00 0.00 79 1014.5
20260905140238 82 154 0.9 2.6 0.00 0.00 0.00 80 1014.6
20260905135737 81 171 0.9 2.6 0.00 0.00 0.00 81 1014.5
20260905135238 81 160 0.9 2.6 0.00 0.00 0.00 82 1014.5
20260905134737 80 149 0.9 2.6 0.00 0.00 0.00 83 1014.3
20260905134239 80 158 0.9 2.6 0.00 0.00 0.00 84 1014.3
20260905133737 79 177 0.9 1.7 0.00 0.00 0.00 84 1014.3
20260905133238 79 173 0.9 1.7 0.00 0.00 0.00 85 1014.3
20260905132739 78 166 0.9 1.7 0.00 0.00 0.00 86 1014.4
20260905132238 78 144 0.9 0.9 0.00 0.00 0.00 86 1014.4
20260905131738 78 128 0.9 1.7 0.00 0.00 0.00 87 1014.4
20260905131239 77 117 0.9 1.7 0.00 0.00 0.00 89 1014.4
20260905130739 76 108 0.9 1.7 0.00 0.00 0.00 90 1014.4
20260905130238 76 0 0.0 0.9 0.00 0.00 0.00 92 1014.4
20260905125237 74 0 0.0 0.0 0.00 0.00 0.00 92 1014.1
20260905124738 74 0 0.0 0.0 0.00 0.00 0.00 92 1014.1
20260905124237 74 0 0.0 0.9 0.00 0.00 0.00 91 1014.0
20260905123738 74 0 0.0 0.9 0.00 0.00 0.00 91 1014.0
20260905123238 74 0 0.0 0.0 0.00 0.00 0.00 91 1013.9
20260905122737 74 0 0.0 0.0 0.00 0.00 0.00 91 1013.9
20260905121737 74 0 0.0 0.0 0.00 0.00 0.00 91 1013.8
20260905121238 74 0 0.0 0.0 0.00 0.00 0.00 91 1013.7
20260905120738 74 0 0.0 0.0 0.00 0.00 0.00 90 1013.6
20260905114237 74 0 0.0 0.0 0.00 0.00 0.00 90 1013.4
20260905113738 74 0 0.0 0.0 0.00 0.00 0.00 89 1013.3
20260905113237 75 0 0.0 0.0 0.00 0.00 0.00 88 1013.3
20260905111738 75 0 0.0 0.0 0.00 0.00 0.00 88 1013.1
20260905111238 75 0 0.0 0.0 0.00 0.00 0.00 88 1013.2
20260905105737 75 0 0.0 0.0 0.00 0.00 0.00 88 1013.4
20260905105238 75 0 0.0 0.0 0.00 0.00 0.00 88 1013.4
20260905104737 75 0 0.0 0.0 0.00 0.00 0.00 86 1013.3
20260905104237 76 0 0.0 0.0 0.00 0.00 0.00 86 1013.3
20260905103737 76 0 0.0 0.0 0.00 0.00 0.00 86 1013.4
20260905103238 76 0 0.0 0.0 0.00 0.00 0.00 85 1013.3
20260905102737 76 0 0.0 0.0 0.00 0.00 0.00 85 1013.4
20260905102238 76 0 0.0 0.0 0.00 0.00 0.00 85 1013.5
20260905101237 77 0 0.0 0.0 0.00 0.00 0.00 85 1013.4
20260905100738 76 0 0.0 0.0 0.00 0.00 0.00 86 1013.3
20260905100238 76 0 0.0 0.0 0.00 0.00 0.00 86 1013.3
20260905095738 76 0 0.0 0.0 0.00 0.00 0.00 86 1013.3
20260905095238 76 0 0.0 0.0 0.00 0.00 0.00 85 1013.4
20260905094737 77 0 0.0 0.0 0.00 0.00 0.00 84 1013.2
20260905094237 77 0 0.0 0.0 0.00 0.00 0.00 84 1013.3
20260905093738 77 0 0.0 0.0 0.00 0.00 0.00 83 1013.2
20260905093238 77 0 0.0 0.0 0.00 0.00 0.00 83 1013.1
20260905092737 77 0 0.0 0.9 0.00 0.00 0.00 84 1013.1
20260905092238 77 0 0.0 0.9 0.00 0.00 0.00 84 1013.2
20260905091739 77 0 0.0 1.7 0.00 0.00 0.00 84 1013.2
20260905091239 77 0 0.0 1.7 0.00 0.00 0.00 84 1013.2
20260905090738 77 0 0.0 0.9 0.00 0.00 0.00 83 1013.2
20260905085738 77 0 0.0 1.7 0.00 0.00 0.00 83 1013.0
20260905085238 78 0 0.0 0.9 0.00 0.00 0.00 83 1013.2
20260905084238 78 0 0.0 0.9 0.00 0.00 0.00 83 1013.1
20260905083238 77 0 0.0 0.9 0.00 0.00 0.00 83 1012.9
20260905082739 78 0 0.0 0.9 0.00 0.00 0.00 82 1012.9
20260905081738 78 169 0.9 2.6 0.00 0.00 0.00 81 1013.0
20260905080738 78 182 0.9 1.7 0.00 0.00 0.00 80 1013.1
20260905080237 79 0 0.0 1.7 0.00 0.00 0.00 80 1013.0
20260905075238 79 0 0.0 0.9 0.00 0.00 0.00 80 1013.1
20260905074737 79 0 0.0 0.9 0.00 0.00 0.00 80 1013.2
20260905073738 79 0 0.0 0.9 0.00 0.00 0.00 80 1013.3
20260905073238 79 0 0.0 0.9 0.00 0.00 0.00 80 1013.3
20260905072738 79 0 0.0 0.0 0.00 0.00 0.00 79 1013.3
20260905072238 79 0 0.0 0.0 0.00 0.00 0.00 79 1013.3
20260905071238 79 0 0.0 0.9 0.00 0.00 0.00 78 1013.4
20260905070738 79 0 0.0 0.9 0.00 0.00 0.00 78 1013.4
20260905070239 79 0 0.0 0.9 0.00 0.00 0.00 78 1013.3
20260905065738 79 0 0.0 0.9 0.00 0.00 0.00 78 1013.3
20260905065238 80 0 0.0 0.9 0.00 0.00 0.00 78 1013.3
20260905064738 80 0 0.0 0.9 0.00 0.00 0.00 77 1013.4
20260905064238 80 0 0.0 0.9 0.00 0.00 0.00 77 1013.5
20260905063738 80 0 0.0 0.9 0.00 0.00 0.00 77 1013.6
20260905063237 80 0 0.0 0.9 0.00 0.00 0.00 77 1013.6
20260905062237 80 0 0.0 1.7 0.00 0.00 0.00 76 1013.6
20260905060738 81 168 0.9 2.6 0.00 0.00 0.00 75 1013.4
20260905060238 81 0 0.0 1.7 0.00 0.00 0.00 75 1013.3
20260905055738 81 0 0.0 0.9 0.00 0.00 0.00 75 1013.3
20260905055239 81 0 0.0 0.9 0.00 0.00 0.00 75 1013.3
20260905054738 81 173 0.9 1.7 0.00 0.00 0.00 74 1013.4
20260905054239 81 176 0.9 1.7 0.00 0.00 0.00 74 1013.4
20260905053738 82 181 0.9 1.7 0.00 0.00 0.00 74 1013.5
20260905053238 82 178 0.9 1.7 0.00 0.00 0.00 73 1013.3
20260905052738 82 172 0.9 1.7 0.00 0.00 0.00 73 1013.3
20260905052238 82 169 0.9 1.7 0.00 0.00 0.00 73 1013.4
20260905051737 82 166 0.9 3.5 0.00 0.00 0.00 73 1013.3
20260905051238 82 165 0.9 3.5 0.00 0.00 0.00 73 1013.3
20260905050237 82 0 0.0 0.9 0.00 0.00 0.00 73 1013.2
20260905045740 82 0 0.0 1.7 0.00 0.00 0.00 72 1013.3
20260905044738 82 0 0.0 0.9 0.00 0.00 0.00 71 1013.4
20260905044240 82 0 0.0 0.9 0.00 0.00 0.00 71 1013.4
20260905043738 82 0 0.0 0.9 0.00 0.00 0.00 71 1013.4
20260905043239 83 0 0.0 0.9 0.00 0.00 0.00 71 1013.4
20260905042738 83 0 0.0 0.9 0.00 0.00 0.00 70 1013.3
20260905042238 83 162 0.9 1.7 0.00 0.00 0.00 70 1013.4
20260905041739 83 159 0.9 1.7 0.00 0.00 0.00 70 1013.4
20260905041239 83 159 0.9 1.7 0.00 0.00 0.00 69 1013.4
20260905040738 83 161 0.9 2.6 0.00 0.00 0.00 69 1013.4
20260905035738 84 178 0.9 1.7 0.00 0.00 0.00 68 1013.3
20260905035238 84 170 0.9 1.7 0.00 0.00 0.00 68 1013.4
20260905034739 84 163 0.9 2.6 0.00 0.00 0.00 67 1013.4
20260905034238 84 163 0.9 2.6 0.00 0.00 0.00 67 1013.4
20260905033738 84 169 0.9 1.7 0.00 0.00 0.00 67 1013.4
20260905033238 84 179 0.9 2.6 0.00 0.00 0.00 66 1013.4
20260905032739 84 181 0.9 2.6 0.00 0.00 0.00 66 1013.3
20260905032237 85 173 0.9 1.7 0.00 0.00 0.00 65 1013.3
20260905031738 85 167 0.9 1.7 0.00 0.00 0.00 65 1013.4
20260905031238 85 0 0.0 1.7 0.00 0.00 0.00 64 1013.4
20260905030738 85 166 0.9 0.9 0.00 0.00 0.00 64 1013.3
20260905025739 85 170 0.9 1.7 0.00 0.00 0.00 63 1013.1
20260905025238 86 177 0.9 1.7 0.00 0.00 0.00 63 1013.1
20260905024738 86 183 0.9 2.6 0.00 0.00 0.00 63 1013.0
20260905024238 86 178 0.9 2.6 0.00 0.00 0.00 63 1013.1
20260905023739 86 178 0.9 2.6 0.00 0.00 0.00 62 1013.0
20260905023238 86 177 0.9 1.7 0.00 0.00 0.00 62 1012.9
20260905021238 87 159 1.7 4.3 0.00 0.00 0.00 61 1012.5
20260905020738 87 159 1.7 4.3 0.00 0.00 0.00 61 1012.5
20260905020238 88 161 0.9 3.5 0.00 0.00 0.00 60 1012.5
20260905015738 88 164 1.7 3.5 0.00 0.00 0.00 60 1012.4
20260905015238 88 161 1.7 4.3 0.00 0.00 0.00 61 1012.3
20260905014238 88 154 1.7 4.3 0.00 0.00 0.00 61 1012.2
20260905012738 88 162 2.6 6.1 0.00 0.00 0.00 60 1012.1
20260905012238 89 161 3.5 6.1 0.00 0.00 0.00 60 1012.0
20260905011738 89 160 3.5 6.1 0.00 0.00 0.00 59 1012.0
20260905010239 90 164 3.5 7.8 0.00 0.00 0.00 58 1011.8
20260905005738 90 160 4.3 7.8 0.00 0.00 0.00 57 1011.6
20260905005239 90 157 3.5 7.8 0.00 0.00 0.00 55 1011.6
20260905004738 91 154 3.5 7.0 0.00 0.00 0.00 54 1011.5
20260905004240 91 152 3.5 7.0 0.00 0.00 0.00 52 1011.4
20260905003238 91 152 3.5 7.8 0.00 0.00 0.00 51 1011.3
20260905002238 92 154 3.5 8.7 0.00 0.00 0.00 51 1011.3
20260905001738 92 154 3.5 8.7 0.00 0.00 0.00 50 1011.2
20260905001238 93 153 3.5 7.0 0.00 0.00 0.00 49 1011.1
20260905000738 93 152 3.5 6.1 0.00 0.00 0.00 48 1011.0
20260905000241 94 153 2.6 6.1 0.00 0.00 0.00 46 1011.0
20260904235738 94 157 2.6 7.0 0.00 0.00 0.00 46 1011.0
20260904235239 94 158 2.6 7.0 0.00 0.00 0.00 45 1011.0
20260904234739 95 158 2.6 4.3 0.00 0.00 0.00 45 1011.0
20260904233739 95 152 2.6 5.2 0.00 0.00 0.00 42 1011.0
20260904233238 96 149 2.6 5.2 0.00 0.00 0.00 41 1010.9
20260904232238 96 152 2.6 6.1 0.00 0.00 0.00 41 1010.8
20260904231238 96 154 2.6 7.0 0.00 0.00 0.00 41 1010.8
20260904230738 96 153 3.5 7.8 0.00 0.00 0.00 41 1010.9
20260904230238 96 154 3.5 7.8 0.00 0.00 0.00 41 1010.8
20260904225738 96 156 3.5 6.1 0.00 0.00 0.00 41 1010.8
20260904224239 96 160 2.6 6.1 0.00 0.00 0.00 41 1010.9
20260904223740 97 163 2.6 6.1 0.00 0.00 0.00 42 1011.0
20260904223238 97 162 3.5 7.0 0.00 0.00 0.00 42 1011.0
20260904222739 96 157 3.5 7.8 0.00 0.00 0.00 42 1011.1
20260904222239 97 156 4.3 9.6 0.00 0.00 0.00 42 1011.1
20260904221738 97 154 3.5 9.6 0.00 0.00 0.00 41 1011.0
20260904221239 98 150 3.5 7.0 0.00 0.00 0.00 41 1011.0
20260904220738 97 148 2.6 7.0 0.00 0.00 0.00 41 1011.1
20260904220239 97 154 1.7 7.0 0.00 0.00 0.00 41 1011.2
20260904215239 95 154 2.6 5.2 0.00 0.00 0.00 43 1011.3
20260904214239 96 156 3.5 8.7 0.00 0.00 0.00 43 1011.5
20260904213739 97 150 4.3 8.7 0.00 0.00 0.00 43 1011.5
20260904213238 97 145 4.3 8.7 0.00 0.00 0.00 43 1011.5
20260904212738 97 144 4.3 7.8 0.00 0.00 0.00 43 1011.5
20260904211739 97 136 2.6 6.1 0.00 0.00 0.00 43 1011.6
20260904210738 97 150 3.5 7.8 0.00 0.00 0.00 43 1011.8
20260904210238 98 154 3.5 7.8 0.00 0.00 0.00 43 1011.8
20260904205239 98 160 3.5 9.6 0.00 0.00 0.00 43 1011.8
20260904204738 97 155 3.5 9.6 0.00 0.00 0.00 44 1012.0
20260904204239 97 152 3.5 7.0 0.00 0.00 0.00 44 1012.0
20260904203738 98 155 3.5 7.8 0.00 0.00 0.00 43 1012.1
20260904202739 98 163 2.6 7.8 0.00 0.00 0.00 40 1012.2
20260904202238 98 169 1.7 7.8 0.00 0.00 0.00 40 1012.1
20260904201738 98 164 1.7 5.2 0.00 0.00 0.00 41 1012.3
20260904201239 98 145 2.6 5.2 0.00 0.00 0.00 42 1012.3
20260904200238 96 133 2.6 7.0 0.00 0.00 0.00 44 1012.3
20260904195738 96 142 2.6 5.2 0.00 0.00 0.00 44 1012.5
20260904194238 96 150 2.6 6.1 0.00 0.00 0.00 47 1012.7
20260904193739 95 141 3.5 6.1 0.00 0.00 0.00 48 1012.6
20260904193239 96 143 3.5 6.1 0.00 0.00 0.00 47 1012.9
20260904192739 96 141 3.5 7.0 0.00 0.00 0.00 47 1012.9
20260904192238 96 138 3.5 7.0 0.00 0.00 0.00 47 1012.9
20260904191739 96 143 2.6 7.0 0.00 0.00 0.00 48 1013.0
20260904191238 96 150 2.6 7.0 0.00 0.00 0.00 49 1013.1
20260904190739 96 151 3.5 7.8 0.00 0.00 0.00 49 1013.2
20260904190239 96 143 3.5 7.8 0.00 0.00 0.00 48 1013.3
20260904185239 95 143 2.6 6.1 0.00 0.00 0.00 47 1013.4
20260904184739 96 150 2.6 6.1 0.00 0.00 0.00 47 1013.5
20260904184239 95 168 2.6 7.0 0.00 0.00 0.00 47 1013.5
20260904183738 95 172 2.6 7.0 0.00 0.00 0.00 46 1013.6
20260904183239 95 158 2.6 7.0 0.00 0.00 0.00 46 1013.6
20260904182739 95 158 2.6 7.8 0.00 0.00 0.00 47 1013.5
20260904182239 95 163 2.6 7.8 0.00 0.00 0.00 48 1013.6
20260904181738 95 166 2.6 7.0 0.00 0.00 0.00 47 1013.8
20260904181240 94 158 3.5 7.0 0.00 0.00 0.00 46 1013.8
20260904180740 94 153 3.5 8.7 0.00 0.00 0.00 43 1013.9
20260904180239 95 160 3.5 8.7 0.00 0.00 0.00 42 1013.9
20260904175738 95 160 2.6 7.0 0.00 0.00 0.00 43 1014.1
20260904175238 95 156 2.6 7.0 0.00 0.00 0.00 43 1014.1
20260904174739 95 167 1.7 6.1 0.00 0.00 0.00 44 1014.1
20260904174239 95 170 1.7 4.3 0.00 0.00 0.00 45 1014.1
20260904173739 94 173 2.6 5.2 0.00 0.00 0.00 44 1014.2
20260904173239 94 185 2.6 5.2 0.00 0.00 0.00 44 1014.2
20260904172739 93 169 2.6 7.0 0.00 0.00 0.00 48 1014.2
20260904172238 93 164 3.5 7.0 0.00 0.00 0.00 46 1014.3
20260904171740 93 161 3.5 7.8 0.00 0.00 0.00 49 1014.3
20260904171239 93 156 3.5 7.8 0.00 0.00 0.00 49 1014.3
20260904170739 93 158 3.5 7.8 0.00 0.00 0.00 49 1014.5
20260904170239 93 157 2.6 7.8 0.00 0.00 0.00 50 1014.5
20260904165740 93 169 1.7 7.0 0.00 0.00 0.00 49 1014.5
20260904165240 92 183 1.7 7.0 0.00 0.00 0.00 49 1014.5
20260904164740 92 191 1.7 6.1 0.00 0.00 0.00 47 1014.6
20260904164239 92 213 2.6 7.0 0.00 0.00 0.00 45 1014.6
20260904163739 92 222 2.6 8.7 0.00 0.00 0.00 51 1014.6
20260904163239 92 210 2.6 8.7 0.00 0.00 0.00 50 1014.6
20260904162739 92 206 1.7 6.1 0.00 0.00 0.00 52 1014.6
20260904161739 91 179 1.7 5.2 0.00 0.00 0.00 54 1014.6
20260904160740 90 190 2.6 5.2 0.00 0.00 0.00 58 1014.6
20260904155739 90 213 2.6 8.7 0.00 0.00 0.00 56 1014.6
20260904155239 90 204 2.6 8.7 0.00 0.00 0.00 58 1014.6